Beaumont, TX

10:20 PM CDT on March 29, 2017 (GMT -0500)
Southeast Texas Regional

Weather History for KBPT - June, 2014

Change the Weather History Date:

Sunday, June 8, 2014

  Actual Average Record
Temperature  
Mean Temperature 84 °F 80 °F  
Max Temperature 93 °F 89 °F 98 °F (1911)
Min Temperature 74 °F 72 °F 63 °F (1977)
Degree Days  
Heating Degree Days 0 0  
Month to date heating degree days 0 0  
Since 1 June heating degree days 0 0  
Since 1 July heating degree days 1717 1401  
Cooling Degree Days 19 15  
Month to date cooling degree days 135 118  
Year to date cooling degree days 629 684  
Since 1 June cooling degree days 135 118  
Growing Degree Days 33 (Base 50)    
Moisture  
Dew Point 73 °F    
Average Humidity 73    
Maximum Humidity 94    
Minimum Humidity 52    
Precipitation  
Precipitation 0.00 in 0.21 in 3.27 in (1986)
Month to date precipitation 0.20 1.55  
Year to date precipitation 12.65 22.36  
Snow  
Snow 0.00 in 0.00 in 0.00 in ()
Month to date snowfall 0.0 0.0  
Since 1 June snowfall 0.0 0.0  
Since 1 July snowfall 0.3 T  
Snow Depth 0.00 in    
Sea Level Pressure  
Sea Level Pressure 29.92 in    
Wind  
Wind Speed 8 mph (SSW)    
Max Wind Speed 18 mph    
Max Gust Speed 31 mph    
Visibility 10 miles    
Events      
T = Trace of Precipitation, MM = Missing Value Source: NWS Daily Summary

Daily Weather History Graph

Daily Weather History Graph

Search for Another Location

Airport or City:

Trip Planner

Search our weather history database for the weather conditions in past years. The results will help you decide how hot, cold, wet, or windy it might be!

Date:

Astronomy

Jun. 08, 2014 Rise Set
Actual Time 6:14 AM CDT 8:15 PM CDT
Civil Twilight 5:47 AM CDT 8:43 PM CDT
Nautical Twilight 5:14 AM CDT 9:16 PM CDT
Astronomical Twilight 4:38 AM CDT 9:51 PM CDT
Moon 3:52 PM CDT (6/8) 2:48 AM CDT (6/8)
Length of Visible Light 14h 55m
Length of Day
14h 01m
Waxing Gibbous, 77% of the Moon is Illuminated
Jun 8
Waxing Gibbous
Jun 12
Full
Jun 19
Last Quarter
Jun 27
New
Jul 5
First Quarter

Hourly Weather History & Observations

Time (CDT) Temp. Heat Index Dew Point Humidity Pressure Visibility Wind Dir Wind Speed Gust Speed Precip Events Conditions
12:53 AM 75.9 °F - 72.0 °F 87% 29.94 in 10.0 mi South 4.6 mph - N/A   Clear
1:53 AM 75.9 °F - 73.0 °F 91% 29.94 in 10.0 mi South 4.6 mph - N/A   Clear
2:53 AM 77.0 °F - 73.0 °F 88% 29.92 in 10.0 mi South 6.9 mph - N/A   Clear
3:53 AM 77.0 °F - 73.0 °F 88% 29.93 in 10.0 mi South 5.8 mph - N/A   Clear
4:53 AM 75.9 °F - 73.0 °F 91% 29.92 in 10.0 mi South 4.6 mph - N/A   Partly Cloudy
5:53 AM 75.9 °F - 73.0 °F 91% 29.93 in 10.0 mi Calm Calm - N/A   Clear
6:53 AM 75.9 °F - 73.0 °F 91% 29.94 in 10.0 mi South 3.5 mph - N/A   Clear
7:53 AM 80.1 °F 85.1 °F 75.0 °F 85% 29.95 in 10.0 mi South 5.8 mph - N/A   Clear
8:53 AM 84.2 °F 92.3 °F 75.2 °F 74% 29.97 in 10.0 mi South 11.5 mph - N/A   Scattered Clouds
9:21 AM 84.2 °F 90.9 °F 73.4 °F 70% 29.98 in 10.0 mi SSW 9.2 mph - N/A   Mostly Cloudy
9:53 AM 84.0 °F 90.2 °F 73.0 °F 69% 29.97 in 10.0 mi SSW 11.5 mph - N/A   Mostly Cloudy
10:00 AM 84.0 °F 91.2 °F 73.9 °F 72% 29.97 in 10.0 mi SW 8.1 mph - N/A   Mostly Cloudy
10:53 AM 88.0 °F 94.7 °F 72.0 °F 59% 29.97 in 10.0 mi SW 8.1 mph - N/A   Mostly Cloudy
11:53 AM 91.0 °F 98.2 °F 72.0 °F 53% 29.97 in 10.0 mi SSW 10.4 mph - N/A   Mostly Cloudy
12:53 PM 90.0 °F 96.9 °F 72.0 °F 55% 29.95 in 10.0 mi SW 8.1 mph - N/A   Mostly Cloudy
1:53 PM 90.0 °F 97.9 °F 73.0 °F 57% 29.94 in 10.0 mi SSW 9.2 mph 31.1 mph N/A   Mostly Cloudy
2:53 PM 91.4 °F 98.4 °F 71.6 °F 52% 29.91 in 10.0 mi SW 10.4 mph - N/A   Mostly Cloudy
3:53 PM 90.0 °F 97.9 °F 73.0 °F 57% 29.90 in 10.0 mi South 15.0 mph 24.2 mph N/A   Scattered Clouds
4:53 PM 86.0 °F 93.0 °F 73.0 °F 65% 29.88 in 10.0 mi SSW 13.8 mph 19.6 mph N/A   Partly Cloudy
5:53 PM 84.9 °F 90.7 °F 72.0 °F 65% 29.85 in 10.0 mi South 17.3 mph - N/A   Scattered Clouds
6:53 PM 84.0 °F 89.6 °F 72.0 °F 67% 29.84 in 10.0 mi South 15.0 mph - N/A   Partly Cloudy
7:53 PM 82.0 °F 86.7 °F 72.0 °F 71% 29.84 in 10.0 mi South 10.4 mph 20.7 mph N/A   Clear
8:53 PM 80.1 °F 84.2 °F 73.0 °F 79% 29.86 in 10.0 mi SSW 5.8 mph - N/A   Clear
9:53 PM 75.9 °F - 72.0 °F 87% 29.86 in 10.0 mi South 4.6 mph - N/A   Clear
10:53 PM 75.9 °F - 73.0 °F 91% 29.90 in 10.0 mi South 4.6 mph - N/A   Clear
11:53 PM 75.9 °F - 73.0 °F 91% 29.91 in 10.0 mi South 3.5 mph - N/A   Clear